Погода в Рязанцево

Россия / Ярославская область     56°42′42″N   39°12′34″E
темп.,
°C
ветер,
м/с
пор.,
м/с
влажн.,
%
обл.,
%
осадки,
мм/ч
давл.,
гПа
погр.,
м
23 сентября, чт
чт2300:00+6вюв359873 0.0 1016120
03:00+6в3798100 0.0 1016226
06:00+6в499885 0.0 1016309
09:00+7в51196100 0.2 1015425
12:00+9вюв61090100 0.0 1014611
15:00+8вюв5996100 0.4 1013556
18:00+8юв4997100 0.2 1012443
21:00+8ююв2398100 0.2 101174
24 сентября, пт
пт2400:00+7ююв2397100 0.0 100971
03:00+7ююв2496100 0.0 1008111
06:00+7ююв3895100 0.0 1007263
09:00+9ю598213 0.0 1006659
12:00+11ю7106563 0.2 10051342
15:00+11ююв796680 0.6 10051279
18:00+9ююв597617 0.0 1005427
21:00+6юв399294 0.1 1006204
25 сентября, сб
сб2500:00+8юв3884100 0.1 1006279
03:00+7юв378482 0.1 1006199
06:00+5ююв369281 0.0 1006126
09:00+9ююв4876100 0.0 1007522
12:00+9ю4680100 0.0 1007478
15:00+10ю4677100 0.0 1007671
18:00+9ю3785100 0.0 1007379
21:00+8ююв3792100 0.1 1007207
26 сентября, вс
вс2600:00+8ю3694100 0.3 1007170
03:00+8ююв2498100 2.4 1006196
06:00+8зюз2397100 1.2 1007120
09:00+8зсз2296100 2.0 1007127
12:00+9ссз2389100 0.5 1009270
15:00+10с2384100 0.9 1011406
18:00+9с2492100 0.2 1013118
21:00+8с3694100 0.3 1015177
27 сентября, пн
пн2700:00+8ссв379590 0.1 1017207
03:00+8ссв3895100 0.1 1019262
06:00+8с4992100 0.0 1021350
09:00+8с5986100 0.0 1022454
12:00+9ссв5884100 0.1 1024718
15:00+8ссв4893100 0.4 1025547
18:00+8ссв4895100 0.1 1026410
21:00+8св4895100 0.1 1028463